Location: Arena
(42.5007°N, 9.4650°E)
Time: 08:15:42
(UTC+00:00)

Daily predictions for brighter satellites

Satellite Brightness Start Highest point End
(mag) Time Altitude Azimuth Time Altitude Azimuth Time Altitude Azimuth
Cosmos 1603 4.3 18:16:43 10° SW 18:22:18 65° WNW 18:27:53 10° NNE
H-2A R/B 2.5 18:18:01 10° SE 18:22:53 43° ENE 18:27:40 10° N
COSMOS 2455 3.9 18:19:52 10° NNW 18:25:04 29° NE 18:30:14 10° ESE
HJ-1C 3.3 18:22:16 10° SSE 18:25:37 76° ENE 18:29:00 10° N
Abrixas rocket 3.4 18:24:36 10° NW 18:27:15 28° N 18:29:53 10° ENE
Cosmos 1140 Rocket 4.1 18:24:57 10° SSE 18:29:34 33° E 18:34:11 10° NE
Ariane Rocket 3.1 18:27:09 10° SSE 18:32:07 60° ENE 18:37:07 10° N
Cosmos 1943 Rocket 3.7 18:29:30 10° NW 18:34:38 39° WSW 18:39:45 10° S
Meteor 1-16 Rocket 4.1 18:31:35 10° S 18:36:59 76° E 18:42:34 10° NNE
YAOGAN 1 4.3 18:33:22 10° SSW 18:37:21 36° W 18:41:21 10° NNW
Cosmos 614 Rocket 4.0 18:32:11 10° S 18:37:21 67° ESE 18:42:32 10° NNE
CZ-2C R/B 3.1 18:33:02 10° SSE 18:37:44 52° ENE 18:42:20 10° N
APEX 4.4 18:33:29 10° NNW 18:39:47 57° ENE 18:44:51 10° SE
MONITOR-E 4.4 18:38:45 10° SE 18:41:12 35° ENE 18:43:39 10° N
STARLINK-29 2.9 18:39:03 10° SW 18:42:15 88° NNW 18:45:28 10° NE
Cosmos 1190 Rocket 4.2 18:38:17 10° S 18:43:24 52° ESE 18:48:32 10° NNE
SJ-6B 3.4 18:40:24 10° SE 18:44:17 42° ENE 18:48:12 10° N
Aureole 1 Rocket 4.1 18:36:53 10° S 18:44:27 70° ESE 18:50:22 10° NNE
Cosmos 1300 4.2 18:43:12 10° SE 18:45:51 18° E 18:48:30 10° NE
IRIDIUM 104 4.4 18:41:57 10° N 18:47:12 87° W 18:52:25 10° S
BREEZE-M DEB (TANK) 4.4 18:41:30 10° WNW 18:48:15 47° N 18:50:46 13° E
ARGOS Delta rocket 4.4 18:45:17 10° S 18:50:36 75° W 18:56:07 10° NNW
Cosmos 2369 Rocket 3.7 18:46:42 10° NW 18:51:54 38° WSW 18:57:02 10° S
SL-24 R/B 4.4 18:49:41 10° NNE 18:53:15 33° E 18:56:36 10° SSE
CZ-2C R/B 4.1 18:51:46 10° NNE 18:56:12 41° E 19:00:32 10° S
Cosmos 2058 Rocket 3.2 18:53:44 10° S 18:58:06 52° E 19:02:29 10° NNE
Hubble Space Telescope 3.0 18:58:20 10° S 18:59:20 11° S 19:00:20 10° SSE
Cosmos 1726 Rocket 3.5 18:56:20 10° S 19:00:45 88° E 19:05:13 10° N
SL-08 RB Rocket 3.8 18:56:48 10° SSE 19:01:15 57° ENE 19:05:48 10° N
STARLINK-1228 3.5 19:01:19 10° NW 19:04:08 41° NNE 19:05:31 23° E
Cosmos 1461 3.1 18:59:57 10° NNW 19:04:32 70° NE 19:08:01 17° SE
Cosmos 1726 4.0 19:02:08 10° SW 19:05:33 34° WNW 19:09:00 10° N
SL-4 R/B 3.6 19:03:51 10° WNW 19:06:44 25° NNW 19:09:39 10° NE
Cosmos 921 Rocket 3.2 19:02:57 10° N 19:07:01 47° ENE 19:09:43 19° SE
DMSP B5D2-2 4.4 19:02:26 10° NNE 19:07:24 42° E 19:12:21 10° S
Cosmos 1703 3.5 19:03:27 10° NNW 19:07:25 74° W 19:11:22 10° S
Meteor 2-17 Rocket 4.4 19:02:01 10° N 19:08:12 77° E 19:14:21 10° SSE
Cosmos 2341 Rocket 4.4 19:02:09 10° N 19:08:15 45° ENE 19:13:22 15° SE
Cosmos 407 Rocket 3.6 19:03:51 10° SSW 19:09:00 78° WNW 19:14:09 10° NNE
Cosmos 1908 3.6 19:05:23 10° SSW 19:09:13 69° W 19:13:07 10° N
Cosmos 1340 Rocket 2.7 19:05:38 10° S 19:09:41 76° E 19:13:42 10° NNE
Cosmos 2184 Rocket 4.4 19:03:48 10° NNW 19:10:01 67° W 19:16:08 10° S
FREGAT/IRIS 3.1 19:07:29 10° S 19:10:09 53° W 19:12:49 10° NNW
Cosmos 1825 Rocket 4.4 19:06:29 10° NNW 19:10:45 52° W 19:14:57 10° S
Cosmos 2228 3.7 19:07:27 10° SSW 19:11:41 58° W 19:15:59 10° N
Cosmos 676 Rocket 4.0 19:07:26 10° S 19:12:36 57° ESE 19:17:45 10° NNE
COSMOS 2406 4.5 19:13:01 19° E 19:13:01 19° E 19:16:42 10° ENE
STARLINK-1201 4.0 19:10:08 10° NW 19:13:10 35° NNE 19:14:33 24° ENE
Cosmos 1656 Rocket 4.4 19:08:21 10° NNW 19:13:49 53° WSW 19:19:11 10° S
Cosmos 1328 4.2 19:10:08 10° NNW 19:14:07 64° W 19:18:03 10° S
ATLAS 5 CENTAUR R/B 4.3 19:12:08 10° S 19:16:35 16° SSE 19:18:54 15° SE
MOS 1 4.5 19:11:37 10° S 19:17:14 74° WSW 19:22:57 10° NNW
MetOp-A 4.2 19:13:31 14° SSE 19:18:08 63° ENE 19:23:26 10° N
Resurs 01 Rocket 2.3 19:17:43 25° ESE 19:19:37 37° ENE 19:23:41 10° N
Cosmos 2058 4.3 19:17:48 10° NNE 19:20:57 21° ENE 19:21:10 21° ENE
H-2A R/B 4.4 19:20:33 10° WSW 19:21:04 10° SW 19:21:33 10° SW
STARLINK-52 4.1 19:19:36 10° WSW 19:22:41 43° NNW 19:25:47 10° NE
Nadezhda 1 Rocket 4.3 19:17:30 10° SSW 19:23:53 73° W 19:30:14 10° N
MOS 1 Rocket 3.7 19:18:41 10° NNE 19:24:02 56° E 19:29:20 10° S
BREEZE M DEB (TANK) 2.5 19:22:17 10° SW 19:25:07 63° SE 19:32:19 10° ENE
CZ-2C R/B 2.7 19:20:16 10° NNE 19:25:20 52° E 19:30:25 10° S
Cosmos 1812 Rocket 4.4 19:25:20 28° E 19:25:40 28° E 19:29:23 10° NNE
SPOT 3 Rocket 3.5 19:22:44 14° SSE 19:27:13 80° ENE 19:32:26 10° NNW
ARGOS 3.7 19:23:25 10° S 19:28:43 59° W 19:34:02 10° NNW
Cosmos 962 Rocket 4.4 19:23:03 10° N 19:29:11 70° E 19:34:09 16° SSE
FALCON 9 DEB 4.4 19:27:43 10° WSW 19:31:03 41° NNW 19:34:23 10° NE
SL-8 Rocket 4.3 19:25:41 10° N 19:31:48 49° ENE 19:35:13 25° SE
GEOS 3 Rocket 4.5 19:27:21 11° SSE 19:31:57 44° WSW 19:36:56 10° NW
Cosmos 2154 Rocket 4.3 19:26:44 10° NNW 19:33:03 70° W 19:39:18 10° S
Iridium 2 4.2 19:33:27 37° E 19:33:29 37° E 19:37:01 10° NNE
Cosmos 2181 Rocket 4.1 19:28:07 10° SSE 19:34:09 53° E 19:40:08 10° NNE
Cosmos 1954 Rocket 3.9 19:28:57 10° SSW 19:34:12 85° ESE 19:39:26 10° NNE
USA 186 3.8 19:31:34 10° SSW 19:34:26 27° W 19:37:12 10° NW
NOSS 3-4 (A) 4.2 19:29:13 10° NW 19:36:17 65° WSW 19:42:33 16° SSE
NOSS 3-4 (C) 4.2 19:29:20 10° NW 19:36:23 65° WSW 19:42:37 17° SSE
STARLINK-67 3.4 19:37:11 10° WNW 19:39:24 41° WSW 19:39:24 41° WSW
Cosmos 1741 Rocket 4.5 19:41:05 34° SE 19:42:13 38° ESE 19:47:08 10° NE
Cosmos 2366 rocket 4.2 19:39:57 10° N 19:45:55 49° ENE 19:48:11 34° SE
BREEZE-M DEB (TANK) 3.4 19:40:43 10° SW 19:45:56 48° SSE 19:45:56 48° SSE
Cosmos 1076 Rocket 4.0 19:42:08 10° N 19:46:12 40° ENE 19:46:20 40° E
Cosmos 1763 Rocket 4.2 19:45:59 10° N 19:50:44 35° ENE 19:51:29 34° E
GRACE-FO 1 4.5 19:50:50 67° ESE 19:50:59 68° E 19:54:41 10° N
GRACE-FO 2 4.5 19:51:14 68° ESE 19:51:22 69° E 19:55:04 10° N
STARLINK-1200 4.4 19:47:46 10° NW 19:51:42 41° NNE 19:52:31 36° ENE
STARLINK-1234 3.4 19:53:09 10° WNW 19:55:47 55° W 19:55:47 55° W
STARLINK-1209 3.5 19:53:36 10° WNW 19:56:15 51° W 19:56:15 51° W
STARLINK-1192 4.2 19:52:43 10° NW 19:56:42 44° NNE 19:57:18 41° NE
STARLINK-1233 3.3 19:53:59 10° NW 19:56:38 60° NW 19:56:38 60° NW
STARLINK-1212 3.4 19:54:27 10° NW 19:57:04 59° NW 19:57:04 59° NW
STARLINK-1105 3.4 19:54:53 10° NW 19:57:31 59° WNW 19:57:31 59° WNW
STARLINK-1206 3.5 19:55:22 10° NW 19:57:55 56° WNW 19:57:55 56° WNW
STARLINK-1247 3.5 19:55:49 10° NW 19:58:22 55° WNW 19:58:22 55° WNW
STARLINK-1227 3.5 19:56:13 10° NW 19:58:47 56° WNW 19:58:47 56° WNW
Iridium 4 Rocket 3.5 19:55:39 10° N 19:59:06 42° ENE 19:59:06 42° ENE
STARLINK-1218 3.6 19:56:43 10° NW 19:59:13 54° WNW 19:59:13 54° WNW
STARLINK-1226 3.6 19:57:09 10° NW 19:59:40 53° WNW 19:59:40 53° WNW
STARLINK-1254 3.6 19:57:35 10° NW 20:00:06 53° WNW 20:00:06 53° WNW
USA 234 3.3 19:54:24 10° ENE 20:00:45 50° SE 20:07:03 10° SSW
Cosmos 1980 Rocket 4.1 19:57:46 10° N 20:00:57 15° NE 20:02:02 14° ENE
STARLINK-1215 3.7 19:58:05 10° NW 20:00:32 51° WNW 20:00:32 51° WNW
STARLINK-1231 3.7 19:58:31 10° NW 20:00:58 50° WNW 20:00:58 50° WNW
STARLINK-1244 4.1 19:57:47 10° NW 20:01:48 47° NNE 20:02:10 45° NE
Cosmos 1174 4.4 19:57:47 10° NNW 20:02:01 56° ENE 20:02:39 51° E
H-2A R/B 4.2 19:58:22 10° SW 20:02:27 23° W 20:06:29 10° NW
STARLINK-1232 3.7 19:59:26 10° NW 20:01:50 49° WNW 20:01:50 49° WNW
STARLINK-1217 3.8 19:59:53 10° NW 20:02:16 48° WNW 20:02:16 48° WNW
Abrixas rocket 3.3 20:00:06 10° WNW 20:02:07 39° WNW 20:02:07 39° WNW
Cosmos 1892 3.6 19:59:19 10° N 20:02:13 38° NE 20:02:13 38° NE
STARLINK-1208 3.8 20:00:18 10° NW 20:02:43 49° WNW 20:02:43 49° WNW
STARLINK-1229 3.8 20:00:46 10° NW 20:03:07 47° WNW 20:03:07 47° WNW
STARLINK-1271 3.9 20:01:14 10° NW 20:03:34 46° WNW 20:03:34 46° WNW
ATLAS 5 CENTAUR R/B 3.8 20:01:01 10° W 20:04:35 26° NW 20:08:33 10° NNE
STARLINK-1270 3.9 20:01:42 10° NW 20:04:00 45° WNW 20:04:00 45° WNW
STARLINK-1154 3.9 20:02:08 10° WNW 20:04:26 44° WNW 20:04:26 44° WNW
STARLINK-1197 4.0 20:03:03 10° WNW 20:05:18 43° WNW 20:05:18 43° WNW
STARLINK-1189 4.0 20:03:28 10° WNW 20:05:43 42° WNW 20:05:43 42° WNW
STARLINK-1138 4.0 20:02:39 10° NW 20:06:43 50° NNE 20:06:52 50° NE
STARLINK-1198 4.1 20:03:57 10° WNW 20:06:10 42° WNW 20:06:10 42° WNW
STARLINK-1188 4.1 20:04:23 10° WNW 20:06:35 41° WNW 20:06:35 41° WNW
Cosmos 1825 4.5 20:04:43 10° NNE 20:05:39 14° NE 20:05:39 14° NE
ATLAS 2AS CENTAUR R/B 3.9 20:01:29 10° NW 20:08:07 37° WSW 20:13:00 16° S
STARLINK-1235 4.2 20:05:05 10° WNW 20:07:18 37° W 20:07:18 37° W
STARLINK-1187 4.2 20:05:28 10° WNW 20:07:42 39° W 20:07:42 39° W
STARLINK-1199 4.2 20:06:20 10° WNW 20:08:31 40° WNW 20:08:31 40° WNW
STARLINK-1191 4.2 20:06:47 10° WNW 20:08:56 39° WNW 20:08:56 39° WNW
STARLINK-1210 4.3 20:07:14 10° WNW 20:09:23 38° WNW 20:09:23 38° WNW
STARLINK-1221 4.3 20:07:41 10° WNW 20:09:49 38° WNW 20:09:49 38° WNW
STARLINK-1219 4.3 20:08:09 10° WNW 20:10:15 37° WNW 20:10:15 37° WNW
COSMOS 2455 3.3 20:05:27 10° NW 20:11:19 55° WSW 20:13:57 32° S
STARLINK-1143 4.0 20:07:37 10° NW 20:11:39 54° NNE 20:11:39 54° NNE
STARLINK-1222 4.4 20:08:35 10° WNW 20:10:40 37° WNW 20:10:40 37° WNW
STARLINK-1211 4.4 20:09:03 10° WNW 20:11:07 36° WNW 20:11:07 36° WNW
STARLINK-1214 4.4 20:09:30 10° WNW 20:11:33 36° WNW 20:11:33 36° WNW
STARLINK-1245 4.5 20:09:58 10° WNW 20:11:57 34° WNW 20:11:57 34° WNW
STARLINK-1238 4.5 20:10:24 10° WNW 20:12:25 35° WNW 20:12:25 35° WNW
ERBS 3.6 20:12:02 10° NW 20:14:20 36° NNW 20:14:20 36° NNW
STARLINK-1241 4.0 20:12:37 10° NW 20:16:28 57° NNE 20:16:28 57° NNE
IGS 5A 4.3 20:20:27 41° NNE 20:20:27 41° NNE 20:23:29 10° N
STARLINK-1239 4.0 20:17:34 10° NW 20:21:14 58° N 20:21:14 58° N
Spot 2 Rocket 3.3 20:22:15 73° SE 20:22:43 82° ENE 20:27:51 10° NNW
ATLAS CENTAUR R/B 3.4 20:20:19 10° N 20:22:10 17° NNE 20:22:10 17° NNE
Cosmos 1850 Rocket 3.9 20:24:22 42° SSW 20:26:09 83° WNW 20:31:22 10° NNE
Cosmos 1821 Rocket 4.5 20:20:33 10° N 20:26:36 43° ENE 20:26:40 43° ENE
STARLINK-1240 4.1 20:22:33 10° NW 20:26:01 56° NNW 20:26:01 56° NNW
USA 32 4.3 20:21:48 10° N 20:26:23 51° ENE 20:26:23 51° ENE
Terra 3.3 20:29:53 25° NE 20:29:53 25° NE 20:32:41 10° N
Cosmos 841 Rocket 4.1 20:24:57 10° N 20:29:32 42° NE 20:29:32 42° NE
SPOT 5 4.1 20:31:40 27° NNE 20:31:40 27° NNE 20:34:08 10° N
Cosmos 2082 Rocket 4.2 20:34:09 14° NE 20:34:09 14° NE 20:35:04 10° NE
STARLINK-1216 4.3 20:27:30 10° NW 20:30:47 53° NNW 20:30:47 53° NNW
Meteor 2-10 Rocket 3.8 20:33:52 53° NE 20:33:52 53° NE 20:38:16 10° NNE
MetOp-B 4.2 20:32:14 58° SSW 20:33:09 71° WSW 20:38:32 10° NNW
SL-08 R/B 4.3 20:29:47 10° N 20:35:58 82° E 20:36:45 69° SSE
STARLINK-1237 4.5 20:32:27 10° NW 20:35:33 48° NW 20:35:33 48° NW
Cosmos 1833 Rocket 3.7 20:39:02 32° NE 20:39:02 32° NE 20:42:11 10° NNE
Cosmos 468 Rocket 4.1 20:37:24 10° NNW 20:42:30 67° WSW 20:42:30 67° WSW
ERS-1 Rocket 3.4 20:47:00 55° NNE 20:47:00 55° NNE 20:51:06 10° N
SL-4 R/B 4.2 20:44:41 10° NW 20:46:33 17° N 20:46:33 17° N
RESURS DK-1 3.9 20:47:49 10° NNW 20:50:15 34° NNW 20:50:15 34° NNW
BREEZE M DEB (TANK) 4.4 20:48:13 10° W 20:53:25 33° NNW 20:53:25 33° NNW
Cosmos 1570 Rocket 4.2 20:49:54 10° NNW 20:54:32 67° NNW 20:54:32 67° NNW
Resurs 01 Rocket 3.7 20:55:17 20° WSW 20:56:12 21° W 20:59:33 10° NW
COSMOS 2406 3.5 20:54:52 43° SW 20:56:35 63° WNW 21:02:16 10° NNE
CZ-4C R/B 3.4 20:53:48 10° NNW 21:00:40 47° NE 21:01:49 44° ENE
Cosmos 1697 Rocket 3.1 21:09:55 10° NNW 21:14:29 59° NNW 21:14:29 59° NNW
Cosmos 2369 4.1 21:10:04 10° NNW 21:14:33 58° NNW 21:14:33 58° NNW
SL-16 R/B 4.0 21:32:48 10° N 21:36:11 23° NNE 21:36:11 23° NNE
USA 234 3.8 21:37:26 10° NE 21:43:46 54° NNW 21:50:05 10° WSW
Cosmos 2322 Rocket 4.1 21:39:54 10° N 21:43:04 21° NNE 21:43:04 21° NNE
Cosmos 1980 Rocket 3.3 21:40:11 10° NNW 21:43:48 41° NNW 21:43:48 41° NNW
Terra 4.1 22:08:46 20° NW 22:08:46 20° NW 22:10:35 10° NNW
Mayak 1.7 22:04:29 10° N 22:04:58 13° N 22:04:58 13° N
Cosmos 2082 Rocket 3.7 22:15:56 32° NNW 22:15:56 32° NNW 22:19:30 10° NNE
Cosmos 2344 4.4 22:27:53 10° NW 22:37:54 80° WSW 22:38:35 77° SSW
CZ-4C R/B 3.9 22:42:19 10° NW 22:47:00 38° WNW 22:47:00 38° WNW
SL-16 R/B 4.3 23:16:19 10° NNW 23:18:03 20° NW 23:18:03 20° NW
Cosmos 2360 Rocket 4.2 23:17:03 10° NNW 23:19:17 24° NNW 23:19:17 24° NNW
Cosmos 2322 Rocket 4.4 23:23:16 10° NNW 23:24:52 19° NW 23:24:52 19° NW
Cosmos 2333 Rocket 4.1 23:39:40 10° NNW 23:42:25 26° N 23:42:25 26° N
SL-16 R/B 4.2 23:48:42 25° ENE 23:48:42 25° ENE 23:53:29 10° N
